| time (UTC) | temp F | wind direction | speed MPH | gust MPH | rain 1hr in | rain 24hr in | rain mn in | humidity % | barometer mb |
| 20260509221554 | 62 | 159 | 5.0 | 9.0 | 0.00 | 0.00 | 0.00 | 80 | 1021.7 |
| 20260509221552 | 62 | 62 | 0.0 | 2.0 | 0.00 | 0.00 | 0.00 | 76 | 1015.2 |
| 20260509221539 | 59 | 0 | 0.0 | 0.0 | 0.00 | 0.00 | 0.00 | 83 | 1013.3 |
| 20260509220057 | 61 | 0 | 0.0 | 3.0 | 0.00 | 0.00 | 0.00 | 78 | 1015.3 |
| 20260509220052 | 62 | 189 | 6.0 | 11.0 | 0.00 | 0.00 | 0.00 | 80 | 1021.9 |
| 20260509220033 | 60 | 0 | 0.0 | 2.0 | 0.00 | 0.00 | 0.00 | 82 | 1013.4 |
| 20260509214556 | 61 | 62 | 3.0 | 4.0 | 0.00 | 0.00 | 0.00 | 78 | 1015.4 |
| 20260509214551 | 62 | 156 | 4.0 | 10.0 | 0.00 | 0.00 | 0.00 | 80 | 1021.9 |
| 20260509214532 | 60 | 0 | 0.0 | 0.0 | 0.00 | 0.00 | 0.00 | 82 | 1013.3 |
| 20260509213105 | 62 | 157 | 2.0 | 9.0 | 0.00 | 0.00 | 0.00 | 75 | 1015.4 |
| 20260509213053 | 62 | 173 | 4.0 | 9.0 | 0.00 | 0.00 | 0.00 | 80 | 1021.9 |
| 20260509213033 | 61 | 0 | 0.0 | 1.0 | 0.00 | 0.00 | 0.00 | 80 | 1013.5 |
| 20260509211603 | 62 | 171 | 4.0 | 9.0 | 0.00 | 0.00 | 0.00 | 75 | 1015.2 |
| 20260509211554 | 63 | 151 | 4.0 | 8.0 | 0.00 | 0.00 | 0.00 | 79 | 1021.9 |
| 20260509211537 | 60 | 258 | 0.0 | 1.0 | 0.00 | 0.00 | 0.00 | 82 | 1013.7 |
| 20260509210056 | 63 | 186 | 4.0 | 7.0 | 0.00 | 0.00 | 0.00 | 73 | 1015.1 |
| 20260509210034 | 59 | 243 | 2.0 | 4.0 | 0.00 | 0.00 | 0.00 | 83 | 1013.8 |
| 20260509204557 | 63 | 170 | 6.0 | 10.0 | 0.00 | 0.00 | 0.00 | 79 | 1022.0 |
| 20260509204555 | 63 | 174 | 4.0 | 8.0 | 0.00 | 0.00 | 0.00 | 72 | 1015.0 |
| 20260509204533 | 58 | 233 | 2.0 | 4.0 | 0.00 | 0.00 | 0.00 | 83 | 1013.8 |
| 20260509203055 | 63 | 188 | 4.0 | 8.0 | 0.00 | 0.00 | 0.00 | 78 | 1022.0 |
| 20260509203053 | 63 | 182 | 4.0 | 9.0 | 0.00 | 0.00 | 0.00 | 72 | 1015.1 |
| 20260509203034 | 61 | 0 | 1.0 | 3.0 | 0.00 | 0.00 | 0.00 | 77 | 1014.0 |
| 20260509201605 | 66 | 176 | 5.0 | 8.0 | 0.00 | 0.00 | 0.00 | 65 | 1015.3 |
| 20260509201601 | 64 | 171 | 4.0 | 8.0 | 0.00 | 0.00 | 0.00 | 78 | 1022.2 |
| 20260509201544 | 60 | 0 | 0.0 | 0.0 | 0.00 | 0.00 | 0.00 | 76 | 1014.0 |
| 20260509200107 | 64 | 156 | 4.0 | 7.0 | 0.00 | 0.00 | 0.00 | 78 | 1022.1 |
| 20260509200054 | 67 | 202 | 5.0 | 7.0 | 0.00 | 0.00 | 0.00 | 62 | 1015.3 |
| 20260509200031 | 60 | 0 | 0.0 | 0.0 | 0.00 | 0.00 | 0.00 | 75 | 1014.2 |
| 20260509194556 | 68 | 186 | 5.0 | 6.0 | 0.00 | 0.00 | 0.00 | 59 | 1015.4 |
| 20260509194552 | 64 | 155 | 3.0 | 7.0 | 0.00 | 0.00 | 0.00 | 78 | 1022.1 |
| 20260509194536 | 60 | 0 | 0.0 | 2.0 | 0.00 | 0.00 | 0.00 | 78 | 1014.2 |
| 20260509193057 | 64 | 163 | 4.0 | 7.0 | 0.00 | 0.00 | 0.00 | 78 | 1022.3 |
| 20260509193049 | 69 | 188 | 4.0 | 5.0 | 0.00 | 0.00 | 0.00 | 56 | 1015.4 |
| 20260509193032 | 59 | 239 | 0.0 | 2.0 | 0.00 | 0.00 | 0.00 | 79 | 1014.3 |
| 20260509191604 | 70 | 202 | 4.0 | 7.0 | 0.00 | 0.00 | 0.00 | 53 | 1015.4 |
| 20260509191553 | 64 | 161 | 3.0 | 7.0 | 0.00 | 0.00 | 0.00 | 78 | 1022.2 |
| 20260509191535 | 61 | 0 | 0.0 | 1.0 | 0.00 | 0.00 | 0.00 | 75 | 1014.3 |
| 20260509190057 | 71 | 223 | 4.0 | 7.0 | 0.00 | 0.00 | 0.00 | 52 | 1015.3 |
| 20260509190054 | 65 | 169 | 2.0 | 8.0 | 0.00 | 0.00 | 0.00 | 77 | 1022.3 |
| 20260509190035 | 62 | 0 | 0.0 | 1.0 | 0.00 | 0.00 | 0.00 | 68 | 1014.4 |
| 20260509184601 | 65 | 166 | 3.0 | 7.0 | 0.00 | 0.00 | 0.00 | 76 | 1022.2 |
| 20260509184532 | 63 | 0 | 0.0 | 1.0 | 0.00 | 0.00 | 0.00 | 66 | 1014.4 |
| 20260509183100 | 71 | 224 | 4.0 | 7.0 | 0.00 | 0.00 | 0.00 | 52 | 1015.5 |
| 20260509183059 | 65 | 151 | 3.0 | 7.0 | 0.00 | 0.00 | 0.00 | 76 | 1022.1 |
| 20260509183035 | 64 | 319 | 0.0 | 2.0 | 0.00 | 0.00 | 0.00 | 67 | 1014.2 |
| 20260509181620 | 66 | 163 | 4.0 | 9.0 | 0.00 | 0.00 | 0.00 | 76 | 1022.0 |
| 20260509181602 | 72 | 221 | 4.0 | 7.0 | 0.00 | 0.00 | 0.00 | 51 | 1015.4 |
| 20260509181539 | 65 | 97 | 0.0 | 2.0 | 0.00 | 0.00 | 0.00 | 63 | 1014.1 |
| 20260509180110 | 72 | 221 | 5.0 | 8.0 | 0.00 | 0.00 | 0.00 | 50 | 1015.3 |
| 20260509180057 | 66 | 163 | 4.0 | 8.0 | 0.00 | 0.00 | 0.00 | 75 | 1022.0 |
| 20260509180034 | 65 | 101 | 1.0 | 5.0 | 0.00 | 0.00 | 0.00 | 67 | 1013.9 |
| 20260509174558 | 66 | 169 | 2.0 | 4.0 | 0.00 | 0.00 | 0.00 | 75 | 1021.7 |
| 20260509174553 | 73 | 209 | 4.0 | 7.0 | 0.00 | 0.00 | 0.00 | 49 | 1015.2 |
| 20260509174535 | 69 | 0 | 0.0 | 1.0 | 0.00 | 0.00 | 0.00 | 60 | 1013.5 |
| 20260509173104 | 66 | 182 | 2.0 | 5.0 | 0.00 | 0.00 | 0.00 | 74 | 1021.6 |
| 20260509173102 | 73 | 219 | 4.0 | 7.0 | 0.00 | 0.00 | 0.00 | 50 | 1015.1 |
| 20260509173035 | 67 | 235 | 1.0 | 3.0 | 0.00 | 0.00 | 0.00 | 63 | 1013.4 |
| 20260509171557 | 73 | 206 | 4.0 | 7.0 | 0.00 | 0.00 | 0.00 | 49 | 1014.9 |
| 20260509171552 | 67 | 185 | 2.0 | 5.0 | 0.00 | 0.00 | 0.00 | 73 | 1021.6 |
| 20260509171539 | 69 | 246 | 1.0 | 3.0 | 0.00 | 0.00 | 0.00 | 60 | 1013.4 |
| 20260509170058 | 68 | 175 | 3.0 | 7.0 | 0.00 | 0.00 | 0.00 | 72 | 1021.5 |
| 20260509170054 | 74 | 233 | 4.0 | 7.0 | 0.00 | 0.00 | 0.00 | 49 | 1014.9 |
| 20260509170035 | 73 | 0 | 0.0 | 4.0 | 0.00 | 0.00 | 0.00 | 53 | 1013.3 |
| 20260509164555 | 69 | 162 | 2.0 | 8.0 | 0.00 | 0.00 | 0.00 | 70 | 1021.2 |
| 20260509164553 | 75 | 248 | 5.0 | 8.0 | 0.00 | 0.00 | 0.00 | 48 | 1014.6 |
| 20260509164541 | 69 | 233 | 1.0 | 3.0 | 0.00 | 0.00 | 0.00 | 57 | 1013.2 |
| 20260509163056 | 75 | 260 | 5.0 | 7.0 | 0.00 | 0.00 | 0.00 | 48 | 1014.6 |
| 20260509163037 | 69 | 248 | 1.0 | 2.0 | 0.00 | 0.00 | 0.00 | 58 | 1012.9 |
| 20260509161602 | 76 | 259 | 4.0 | 6.0 | 0.00 | 0.00 | 0.00 | 47 | 1014.4 |
| 20260509161600 | 70 | 144 | 3.0 | 7.0 | 0.00 | 0.00 | 0.00 | 68 | 1020.8 |
| 20260509161536 | 71 | 244 | 1.0 | 3.0 | 0.00 | 0.00 | 0.00 | 55 | 1012.6 |
| 20260509160056 | 71 | 188 | 3.0 | 6.0 | 0.00 | 0.00 | 0.00 | 67 | 1020.7 |
| 20260509160052 | 76 | 265 | 3.0 | 5.0 | 0.00 | 0.00 | 0.00 | 46 | 1014.2 |
| 20260509160035 | 73 | 0 | 0.0 | 1.0 | 0.00 | 0.00 | 0.00 | 49 | 1012.5 |
| 20260509154556 | 72 | 162 | 1.0 | 7.0 | 0.00 | 0.00 | 0.00 | 65 | 1020.5 |
| 20260509154554 | 77 | 285 | 3.0 | 5.0 | 0.00 | 0.00 | 0.00 | 45 | 1014.2 |
| 20260509154535 | 76 | 0 | 0.0 | 1.0 | 0.00 | 0.00 | 0.00 | 45 | 1012.4 |
| 20260509153100 | 79 | 302 | 1.0 | 3.0 | 0.00 | 0.00 | 0.00 | 43 | 1014.3 |
| 20260509153057 | 73 | 145 | 2.0 | 7.0 | 0.00 | 0.00 | 0.00 | 64 | 1020.6 |
| 20260509153034 | 77 | 174 | 1.0 | 3.0 | 0.00 | 0.00 | 0.00 | 41 | 1012.2 |
| 20260509151603 | 75 | 149 | 3.0 | 9.0 | 0.00 | 0.00 | 0.00 | 62 | 1020.5 |
| 20260509151553 | 80 | 302 | 1.0 | 5.0 | 0.00 | 0.00 | 0.00 | 43 | 1014.1 |
| 20260509151536 | 78 | 168 | 0.0 | 1.0 | 0.00 | 0.00 | 0.00 | 40 | 1012.0 |
| 20260509150054 | 75 | 153 | 4.0 | 8.0 | 0.00 | 0.00 | 0.00 | 62 | 1020.5 |
| 20260509150037 | 80 | 0 | 1.0 | 3.0 | 0.00 | 0.00 | 0.00 | 38 | 1011.9 |
| 20260509144608 | 76 | 144 | 5.0 | 10.0 | 0.00 | 0.00 | 0.00 | 60 | 1020.3 |
| 20260509144557 | 80 | 328 | 3.0 | 8.0 | 0.00 | 0.00 | 0.00 | 41 | 1014.2 |
| 20260509144535 | 80 | 0 | 0.0 | 5.0 | 0.00 | 0.00 | 0.00 | 38 | 1011.7 |
| 20260509143117 | 77 | 144 | 4.0 | 10.0 | 0.00 | 0.00 | 0.00 | 59 | 1020.1 |
| 20260509143058 | 81 | 332 | 5.0 | 10.0 | 0.00 | 0.00 | 0.00 | 41 | 1014.0 |
| 20260509143035 | 81 | 0 | 0.0 | 6.0 | 0.00 | 0.00 | 0.00 | 37 | 1011.6 |
| 20260509141602 | 81 | 343 | 5.0 | 9.0 | 0.00 | 0.00 | 0.00 | 41 | 1014.2 |
| 20260509141551 | 76 | 196 | 5.0 | 14.0 | 0.00 | 0.00 | 0.00 | 60 | 1020.1 |
| 20260509141536 | 81 | 165 | 2.0 | 8.0 | 0.00 | 0.00 | 0.00 | 37 | 1011.6 |
| 20260509140108 | 81 | 331 | 5.0 | 12.0 | 0.00 | 0.00 | 0.00 | 41 | 1014.0 |
| 20260509140035 | 82 | 218 | 2.0 | 6.0 | 0.00 | 0.00 | 0.00 | 35 | 1011.6 |
| 20260509134608 | 78 | 142 | 7.0 | 13.0 | 0.00 | 0.00 | 0.00 | 55 | 1020.0 |
| 20260509134558 | 82 | 328 | 4.0 | 9.0 | 0.00 | 0.00 | 0.00 | 41 | 1013.9 |
| 20260509134547 | 82 | 148 | 2.0 | 10.0 | 0.00 | 0.00 | 0.00 | 36 | 1011.5 |
| 20260509133058 | 82 | 264 | 1.0 | 8.0 | 0.00 | 0.00 | 0.00 | 42 | 1014.1 |
| 20260509133053 | 78 | 101 | 5.0 | 11.0 | 0.00 | 0.00 | 0.00 | 56 | 1020.1 |
| 20260509133033 | 82 | 132 | 5.0 | 9.0 | 0.00 | 0.00 | 0.00 | 34 | 1011.5 |
| 20260509131555 | 79 | 105 | 5.0 | 10.0 | 0.00 | 0.00 | 0.00 | 55 | 1020.0 |
| 20260509131551 | 81 | 302 | 5.0 | 13.0 | 0.00 | 0.00 | 0.00 | 43 | 1014.2 |
| 20260509131547 | 82 | 56 | 1.0 | 10.0 | 0.00 | 0.00 | 0.00 | 35 | 1011.5 |
| 20260509130101 | 79 | 90 | 6.0 | 12.0 | 0.00 | 0.00 | 0.00 | 54 | 1020.0 |
| 20260509130058 | 82 | 262 | 3.0 | 10.0 | 0.00 | 0.00 | 0.00 | 45 | 1014.1 |
| 20260509130039 | 82 | 184 | 6.0 | 13.0 | 0.00 | 0.00 | 0.00 | 35 | 1011.5 |
| 20260509124556 | 78 | 131 | 4.0 | 12.0 | 0.00 | 0.00 | 0.00 | 56 | 1020.0 |
| 20260509124554 | 80 | 347 | 1.0 | 12.0 | 0.00 | 0.00 | 0.00 | 46 | 1014.1 |
| 20260509124534 | 82 | 216 | 5.0 | 10.0 | 0.00 | 0.00 | 0.00 | 36 | 1011.5 |
| 20260509123111 | 79 | 132 | 3.0 | 8.0 | 0.00 | 0.00 | 0.00 | 56 | 1020.1 |
| 20260509123051 | 81 | 340 | 6.0 | 13.0 | 0.00 | 0.00 | 0.00 | 46 | 1014.2 |
| 20260509123030 | 82 | 158 | 3.0 | 6.0 | 0.00 | 0.00 | 0.00 | 36 | 1011.6 |
| 20260509121610 | 78 | 193 | 5.0 | 10.0 | 0.00 | 0.00 | 0.00 | 57 | 1020.1 |
| 20260509121555 | 80 | 333 | 3.0 | 14.0 | 0.00 | 0.00 | 0.00 | 48 | 1014.3 |
| 20260509121530 | 80 | 128 | 1.0 | 7.0 | 0.00 | 0.00 | 0.00 | 40 | 1011.9 |
| 20260509120112 | 76 | 148 | 3.0 | 8.0 | 0.00 | 0.00 | 0.00 | 60 | 1020.3 |
| 20260509120055 | 78 | 33 | 3.0 | 6.0 | 0.00 | 0.00 | 0.00 | 54 | 1014.5 |
| 20260509120037 | 81 | 46 | 4.0 | 9.0 | 0.00 | 0.00 | 0.00 | 42 | 1011.9 |
| 20260509114553 | 77 | 121 | 4.0 | 10.0 | 0.00 | 0.00 | 0.00 | 57 | 1020.6 |
| 20260509114551 | 79 | 28 | 4.0 | 12.0 | 0.00 | 0.00 | 0.00 | 52 | 1014.6 |
| 20260509114536 | 79 | 298 | 1.0 | 6.0 | 0.00 | 0.00 | 0.00 | 42 | 1012.1 |
| 20260509113055 | 79 | 124 | 5.0 | 12.0 | 0.00 | 0.00 | 0.00 | 57 | 1020.7 |
| 20260509113053 | 81 | 341 | 6.0 | 15.0 | 0.00 | 0.00 | 0.00 | 50 | 1014.7 |
| 20260509113034 | 79 | 59 | 2.0 | 4.0 | 0.00 | 0.00 | 0.00 | 45 | 1012.5 |
| 20260509111603 | 78 | 182 | 4.0 | 9.0 | 0.00 | 0.00 | 0.00 | 59 | 1020.9 |
| 20260509111554 | 80 | 299 | 4.0 | 10.0 | 0.00 | 0.00 | 0.00 | 48 | 1015.1 |
| 20260509111531 | 78 | 73 | 2.0 | 6.0 | 0.00 | 0.00 | 0.00 | 45 | 1012.9 |
| 20260509110054 | 77 | 101 | 5.0 | 13.0 | 0.00 | 0.00 | 0.00 | 60 | 1021.1 |
| 20260509110032 | 77 | 46 | 4.0 | 10.0 | 0.00 | 0.00 | 0.00 | 47 | 1013.3 |
| 20260509104559 | 80 | 269 | 3.0 | 9.0 | 0.00 | 0.00 | 0.00 | 47 | 1015.3 |
| 20260509104554 | 77 | 56 | 3.0 | 11.0 | 0.00 | 0.00 | 0.00 | 61 | 1021.4 |
| 20260509104531 | 77 | 24 | 2.0 | 6.0 | 0.00 | 0.00 | 0.00 | 47 | 1013.5 |
| 20260509103105 | 78 | 46 | 1.0 | 6.0 | 0.00 | 0.00 | 0.00 | 53 | 1015.5 |
| 20260509103103 | 78 | 112 | 8.0 | 12.0 | 0.00 | 0.00 | 0.00 | 60 | 1021.4 |
| 20260509103037 | 77 | 343 | 3.0 | 6.0 | 0.00 | 0.00 | 0.00 | 47 | 1013.7 |
| 20260509101619 | 77 | 160 | 6.0 | 10.0 | 0.00 | 0.00 | 0.00 | 63 | 1021.6 |
| 20260509101550 | 78 | 281 | 4.0 | 10.0 | 0.00 | 0.00 | 0.00 | 53 | 1015.7 |
| 20260509101546 | 76 | 0 | 1.0 | 6.0 | 0.00 | 0.00 | 0.00 | 48 | 1014.0 |
| 20260509100059 | 79 | 355 | 6.0 | 13.0 | 0.00 | 0.00 | 0.00 | 51 | 1016.0 |
| 20260509100057 | 77 | 102 | 6.0 | 10.0 | 0.00 | 0.00 | 0.00 | 62 | 1022.0 |
| 20260509100034 | 75 | 1 | 1.0 | 5.0 | 0.00 | 0.00 | 0.00 | 48 | 1014.1 |
| 20260509094601 | 79 | 321 | 6.0 | 17.0 | 0.00 | 0.00 | 0.00 | 51 | 1016.2 |
| 20260509094559 | 74 | 229 | 5.0 | 12.0 | 0.00 | 0.00 | 0.00 | 65 | 1022.2 |
| 20260509094535 | 74 | 86 | 4.0 | 7.0 | 0.00 | 0.00 | 0.00 | 48 | 1014.6 |
| 20260509093106 | 75 | 189 | 4.0 | 10.0 | 0.00 | 0.00 | 0.00 | 66 | 1022.5 |
| 20260509093058 | 78 | 25 | 5.0 | 16.0 | 0.00 | 0.00 | 0.00 | 49 | 1016.4 |
| 20260509093037 | 75 | 80 | 1.0 | 5.0 | 0.00 | 0.00 | 0.00 | 48 | 1014.7 |
| 20260509091603 | 74 | 167 | 7.0 | 14.0 | 0.00 | 0.00 | 0.00 | 67 | 1022.8 |
| 20260509091556 | 78 | 19 | 6.0 | 13.0 | 0.00 | 0.00 | 0.00 | 50 | 1016.6 |
| 20260509091534 | 74 | 289 | 2.0 | 6.0 | 0.00 | 0.00 | 0.00 | 49 | 1014.9 |
| 20260509090058 | 77 | 354 | 6.0 | 11.0 | 0.00 | 0.00 | 0.00 | 53 | 1016.8 |
| 20260509090035 | 74 | 305 | 0.0 | 5.0 | 0.00 | 0.00 | 0.00 | 52 | 1015.3 |
| 20260509084602 | 73 | 191 | 7.0 | 12.0 | 0.00 | 0.00 | 0.00 | 69 | 1023.2 |
| 20260509084600 | 76 | 13 | 7.0 | 15.0 | 0.00 | 0.00 | 0.00 | 53 | 1017.2 |
| 20260509084539 | 71 | 295 | 2.0 | 6.0 | 0.00 | 0.00 | 0.00 | 55 | 1015.8 |
| 20260509083108 | 76 | 24 | 4.0 | 9.0 | 0.00 | 0.00 | 0.00 | 59 | 1017.3 |
| 20260509083054 | 72 | 167 | 8.0 | 15.0 | 0.00 | 0.00 | 0.00 | 71 | 1023.6 |
| 20260509083043 | 70 | 266 | 2.0 | 11.0 | 0.00 | 0.00 | 0.00 | 56 | 1016.1 |
| 20260509081610 | 72 | 164 | 7.0 | 13.0 | 0.00 | 0.00 | 0.00 | 73 | 1023.7 |
| 20260509081552 | 75 | 76 | 3.0 | 7.0 | 0.00 | 0.00 | 0.00 | 66 | 1017.5 |
| 20260509081537 | 69 | 235 | 1.0 | 6.0 | 0.00 | 0.00 | 0.00 | 58 | 1016.1 |
| 20260509080054 | 71 | 159 | 5.0 | 14.0 | 0.00 | 0.00 | 0.00 | 75 | 1023.9 |
| 20260509080038 | 68 | 0 | 1.0 | 8.0 | 0.00 | 0.00 | 0.00 | 59 | 1016.1 |
| 20260509074612 | 72 | 9 | 4.0 | 8.0 | 0.00 | 0.00 | 0.00 | 72 | 1017.9 |
| 20260509074557 | 70 | 190 | 8.0 | 15.0 | 0.00 | 0.00 | 0.00 | 77 | 1024.0 |
| 20260509074533 | 67 | 342 | 2.0 | 7.0 | 0.00 | 0.00 | 0.00 | 60 | 1016.1 |
| 20260509073105 | 71 | 53 | 4.0 | 10.0 | 0.00 | 0.00 | 0.00 | 75 | 1017.7 |
| 20260509073035 | 67 | 301 | 2.0 | 6.0 | 0.00 | 0.00 | 0.00 | 60 | 1016.3 |
| 20260509071559 | 68 | 158 | 7.0 | 12.0 | 0.00 | 0.00 | 0.00 | 79 | 1024.2 |
| 20260509071532 | 65 | 338 | 4.0 | 7.0 | 0.00 | 0.00 | 0.00 | 62 | 1016.3 |
| 20260509070056 | 70 | 32 | 4.0 | 10.0 | 0.00 | 0.00 | 0.00 | 77 | 1017.6 |
| 20260509070035 | 65 | 310 | 3.0 | 8.0 | 0.00 | 0.00 | 0.00 | 61 | 1016.3 |
| 20260509064619 | 67 | 198 | 7.0 | 14.0 | 0.00 | 0.00 | 0.00 | 82 | 1024.0 |
| 20260509064550 | 69 | 28 | 6.0 | 12.0 | 0.00 | 0.00 | 0.00 | 79 | 1017.3 |
| 20260509064542 | 63 | 331 | 0.0 | 2.0 | 0.00 | 0.00 | 0.00 | 68 | 1016.2 |
| 20260509063101 | 67 | 103 | 5.0 | 10.0 | 0.00 | 0.00 | 0.00 | 80 | 1017.0 |
| 20260509063056 | 66 | 171 | 6.0 | 13.0 | 0.00 | 0.00 | 0.00 | 85 | 1023.7 |
| 20260509063032 | 62 | 82 | 0.0 | 3.0 | 0.00 | 0.00 | 0.00 | 68 | 1016.1 |
| 20260509061601 | 65 | 154 | 7.0 | 13.0 | 0.00 | 0.00 | 0.00 | 88 | 1023.4 |
| 20260509061552 | 66 | 45 | 3.0 | 7.0 | 0.00 | 0.00 | 0.00 | 79 | 1016.8 |
| 20260509061532 | 60 | 0 | 0.0 | 1.0 | 0.00 | 0.00 | 0.00 | 72 | 1016.0 |
| 20260509060110 | 63 | 84 | 2.0 | 6.0 | 0.00 | 0.00 | 0.00 | 82 | 1016.7 |
| 20260509060056 | 64 | 123 | 6.0 | 14.0 | 0.00 | 0.00 | 0.00 | 89 | 1023.1 |
| 20260509060033 | 58 | 0 | 0.0 | 2.0 | 0.00 | 0.00 | 0.00 | 75 | 1015.7 |
| 20260509054602 | 63 | 138 | 7.0 | 14.0 | 0.00 | 0.00 | 0.00 | 91 | 1022.9 |
| 20260509054552 | 61 | 104 | 1.0 | 6.0 | 0.00 | 0.00 | 0.00 | 83 | 1016.5 |
| 20260509054535 | 57 | 0 | 0.0 | 1.0 | 0.00 | 0.00 | 0.00 | 73 | 1015.5 |
| 20260509053107 | 63 | 148 | 5.0 | 12.0 | 0.00 | 0.00 | 0.00 | 92 | 1022.6 |
| 20260509053104 | 58 | 150 | 2.0 | 7.0 | 0.00 | 0.00 | 0.00 | 84 | 1016.2 |
| 20260509053035 | 57 | 0 | 0.0 | 1.0 | 0.00 | 0.00 | 0.00 | 79 | 1015.5 |
| 20260509051558 | 56 | 156 | 3.0 | 7.0 | 0.00 | 0.00 | 0.00 | 85 | 1016.2 |
| 20260509051553 | 62 | 171 | 4.0 | 9.0 | 0.00 | 0.00 | 0.00 | 92 | 1022.6 |
| 20260509051536 | 53 | 0 | 0.0 | 1.0 | 0.00 | 0.00 | 0.00 | 82 | 1015.3 |
| 20260509050058 | 61 | 159 | 4.0 | 9.0 | 0.00 | 0.00 | 0.00 | 92 | 1022.4 |
| 20260509050053 | 55 | 138 | 4.0 | 8.0 | 0.00 | 0.00 | 0.00 | 86 | 1016.0 |
| 20260509050036 | 51 | 0 | 0.0 | 1.0 | 0.00 | 0.00 | 0.00 | 84 | 1015.1 |
| 20260509044559 | 54 | 154 | 4.0 | 8.0 | 0.00 | 0.00 | 0.00 | 87 | 1015.9 |
| 20260509044555 | 61 | 168 | 4.0 | 8.0 | 0.00 | 0.00 | 0.00 | 92 | 1022.2 |
| 20260509044534 | 50 | 0 | 0.0 | 1.0 | 0.00 | 0.00 | 0.00 | 85 | 1015.2 |
| 20260509043101 | 54 | 169 | 5.0 | 9.0 | 0.00 | 0.00 | 0.00 | 88 | 1015.8 |
| 20260509043055 | 60 | 168 | 4.0 | 9.0 | 0.00 | 0.00 | 0.00 | 92 | 1021.9 |
| 20260509043033 | 50 | 0 | 0.0 | 1.0 | 0.00 | 0.00 | 0.00 | 85 | 1015.0 |
| 20260509041617 | 60 | 150 | 5.0 | 9.0 | 0.00 | 0.00 | 0.00 | 91 | 1021.8 |
| 20260509041555 | 54 | 181 | 5.0 | 9.0 | 0.00 | 0.00 | 0.00 | 88 | 1015.7 |
| 20260509041532 | 48 | 0 | 0.0 | 2.0 | 0.00 | 0.00 | 0.00 | 89 | 1014.6 |
| 20260509040106 | 54 | 182 | 5.0 | 8.0 | 0.00 | 0.00 | 0.00 | 88 | 1015.4 |
| 20260509040055 | 60 | 157 | 5.0 | 10.0 | 0.00 | 0.00 | 0.00 | 91 | 1021.4 |
| 20260509040041 | 48 | 245 | 0.0 | 1.0 | 0.00 | 0.00 | 0.00 | 88 | 1014.6 |
| 20260509034554 | 54 | 168 | 5.0 | 8.0 | 0.00 | 0.00 | 0.00 | 88 | 1015.1 |
| 20260509034547 | 47 | 0 | 0.0 | 1.0 | 0.00 | 0.00 | 0.00 | 89 | 1014.5 |
| 20260509033111 | 54 | 150 | 4.0 | 8.0 | 0.00 | 0.00 | 0.00 | 88 | 1014.8 |
| 20260509033056 | 60 | 158 | 3.0 | 8.0 | 0.00 | 0.00 | 0.00 | 91 | 1021.0 |
| 20260509033034 | 47 | 0 | 0.0 | 1.0 | 0.00 | 0.00 | 0.00 | 88 | 1014.1 |
| 20260509031556 | 60 | 163 | 3.0 | 6.0 | 0.00 | 0.00 | 0.00 | 90 | 1020.7 |
| 20260509031553 | 54 | 169 | 5.0 | 8.0 | 0.00 | 0.00 | 0.00 | 88 | 1014.9 |
| 20260509031539 | 49 | 0 | 0.0 | 1.0 | 0.00 | 0.00 | 0.00 | 85 | 1014.1 |
| 20260509030056 | 60 | 166 | 2.0 | 6.0 | 0.00 | 0.00 | 0.00 | 90 | 1020.6 |
| 20260509030053 | 54 | 188 | 4.0 | 9.0 | 0.00 | 0.00 | 0.00 | 88 | 1014.7 |
| 20260509030033 | 48 | 0 | 0.0 | 3.0 | 0.00 | 0.00 | 0.00 | 87 | 1014.0 |
| 20260509024605 | 54 | 167 | 4.0 | 8.0 | 0.00 | 0.00 | 0.00 | 88 | 1014.6 |
| 20260509024600 | 61 | 156 | 4.0 | 8.0 | 0.00 | 0.00 | 0.00 | 90 | 1020.6 |
| 20260509024535 | 48 | 253 | 1.0 | 5.0 | 0.00 | 0.00 | 0.00 | 87 | 1014.0 |
| 20260509023109 | 60 | 167 | 3.0 | 6.0 | 0.00 | 0.00 | 0.00 | 90 | 1020.5 |
| 20260509023053 | 55 | 159 | 5.0 | 9.0 | 0.00 | 0.00 | 0.00 | 86 | 1014.5 |
| 20260509023035 | 48 | 0 | 1.0 | 4.0 | 0.00 | 0.00 | 0.00 | 87 | 1013.8 |
| 20260509021558 | 61 | 150 | 3.0 | 7.0 | 0.00 | 0.00 | 0.00 | 90 | 1020.5 |
| 20260509021553 | 55 | 167 | 5.0 | 10.0 | 0.00 | 0.00 | 0.00 | 86 | 1014.1 |
| 20260509021531 | 48 | 234 | 1.0 | 4.0 | 0.00 | 0.00 | 0.00 | 87 | 1013.8 |
| 20260509020105 | 55 | 177 | 5.0 | 9.0 | 0.00 | 0.00 | 0.00 | 86 | 1014.2 |
| 20260509020056 | 61 | 152 | 3.0 | 6.0 | 0.00 | 0.00 | 0.00 | 89 | 1020.4 |
| 20260509020032 | 47 | 0 | 0.0 | 3.0 | 0.00 | 0.00 | 0.00 | 89 | 1013.8 |
| 20260509014554 | 55 | 174 | 4.0 | 8.0 | 0.00 | 0.00 | 0.00 | 84 | 1014.1 |
| 20260509014533 | 48 | 0 | 0.0 | 1.0 | 0.00 | 0.00 | 0.00 | 88 | 1014.0 |
| 20260509013102 | 61 | 154 | 2.0 | 5.0 | 0.00 | 0.00 | 0.00 | 88 | 1020.4 |
| 20260509013052 | 56 | 157 | 5.0 | 9.0 | 0.00 | 0.00 | 0.00 | 83 | 1014.0 |
| 20260509013033 | 49 | 237 | 0.0 | 1.0 | 0.00 | 0.00 | 0.00 | 85 | 1013.9 |
| 20260509011601 | 61 | 165 | 2.0 | 6.0 | 0.00 | 0.00 | 0.00 | 88 | 1020.4 |
| 20260509011558 | 56 | 198 | 5.0 | 8.0 | 0.00 | 0.00 | 0.00 | 83 | 1014.2 |
| 20260509011532 | 50 | 0 | 0.0 | 1.0 | 0.00 | 0.00 | 0.00 | 83 | 1013.8 |
| 20260509010110 | 62 | 152 | 2.0 | 5.0 | 0.00 | 0.00 | 0.00 | 88 | 1020.4 |
| 20260509010059 | 56 | 164 | 6.0 | 10.0 | 0.00 | 0.00 | 0.00 | 82 | 1014.3 |
| 20260509010036 | 50 | 0 | 0.0 | 1.0 | 0.00 | 0.00 | 0.00 | 83 | 1013.9 |
| 20260509004558 | 62 | 178 | 3.0 | 5.0 | 0.00 | 0.00 | 0.00 | 87 | 1020.6 |
| 20260509004553 | 56 | 152 | 5.0 | 9.0 | 0.00 | 0.00 | 0.00 | 81 | 1014.4 |
| 20260509004535 | 49 | 0 | 0.0 | 1.0 | 0.00 | 0.00 | 0.00 | 84 | 1013.9 |
| 20260509003058 | 56 | 179 | 5.0 | 8.0 | 0.00 | 0.00 | 0.00 | 81 | 1014.5 |
| 20260509003054 | 63 | 177 | 2.0 | 6.0 | 0.00 | 0.00 | 0.00 | 86 | 1020.6 |
| 20260509003035 | 48 | 0 | 0.0 | 1.0 | 0.00 | 0.00 | 0.00 | 87 | 1013.9 |
| 20260509001558 | 63 | 153 | 5.0 | 10.0 | 0.00 | 0.00 | 0.00 | 86 | 1020.6 |
| 20260509001553 | 56 | 175 | 5.0 | 8.0 | 0.00 | 0.00 | 0.00 | 81 | 1014.6 |
| 20260509001538 | 49 | 0 | 0.0 | 1.0 | 0.00 | 0.00 | 0.00 | 86 | 1014.1 |
| 20260509000120 | 63 | 184 | 4.0 | 8.0 | 0.00 | 0.00 | 0.00 | 85 | 1020.6 |
| 20260509000103 | 57 | 163 | 4.0 | 6.0 | 0.00 | 0.00 | 0.00 | 80 | 1014.7 |
| 20260509000034 | 50 | 0 | 0.0 | 1.0 | 0.00 | 0.00 | 0.00 | 83 | 1014.1 |
| 20260508234602 | 57 | 169 | 4.0 | 8.0 | 0.00 | 0.00 | 0.00 | 79 | 1014.7 |
| 20260508234557 | 64 | 170 | 5.0 | 9.0 | 0.00 | 0.00 | 0.00 | 84 | 1020.6 |
| 20260508234533 | 49 | 0 | 0.0 | 1.0 | 0.00 | 0.00 | 0.00 | 86 | 1014.1 |
| 20260508233106 | 64 | 153 | 5.0 | 10.0 | 0.00 | 0.00 | 0.00 | 84 | 1020.7 |
| 20260508233103 | 58 | 201 | 4.0 | 7.0 | 0.00 | 0.00 | 0.00 | 78 | 1014.6 |
| 20260508233033 | 51 | 0 | 0.0 | 0.0 | 0.00 | 0.00 | 0.00 | 83 | 1014.1 |
| 20260508231600 | 58 | 176 | 4.0 | 7.0 | 0.00 | 0.00 | 0.00 | 77 | 1014.6 |
| 20260508231555 | 65 | 144 | 5.0 | 9.0 | 0.00 | 0.00 | 0.00 | 83 | 1021.0 |
| 20260508231536 | 52 | 0 | 0.0 | 0.0 | 0.00 | 0.00 | 0.00 | 81 | 1014.3 |
| 20260508230053 | 65 | 186 | 3.0 | 6.0 | 0.00 | 0.00 | 0.00 | 82 | 1020.9 |
| 20260508230035 | 51 | 243 | 0.0 | 2.0 | 0.00 | 0.00 | 0.00 | 81 | 1014.1 |
| 20260508224556 | 58 | 191 | 4.0 | 8.0 | 0.00 | 0.00 | 0.00 | 77 | 1014.5 |
| 20260508224554 | 66 | 182 | 3.0 | 6.0 | 0.00 | 0.00 | 0.00 | 81 | 1021.1 |
| 20260508224546 | 52 | 239 | 0.0 | 1.0 | 0.00 | 0.00 | 0.00 | 80 | 1014.1 |
| 20260508223055 | 66 | 175 | 3.0 | 7.0 | 0.00 | 0.00 | 0.00 | 81 | 1021.1 |
| 20260508223052 | 58 | 192 | 4.0 | 7.0 | 0.00 | 0.00 | 0.00 | 79 | 1014.5 |
| 20260508223044 | 52 | 0 | 0.0 | 1.0 | 0.00 | 0.00 | 0.00 | 80 | 1014.4 |